This demonstration page uses our WeatherBlox Daily Observations layout. Learn more.

Left ArrowRight Arrow

36.17497, -115.13722

Hourly Observations for March 27, 2021

Temp ( °F °C ) Dew Point ( °F °C ) Humidity (%) Winds ( mph kmh ) Pressure ( in mb ) Visibility ( mi km ) Precip ( " mm )
12:53 am 00:53 Clear 57 13.9 19 -7.2 23 23 N 6 9 30.14 1021 10 16 0.00 0.00
1:53 am 01:53 Clear 57 13.9 20 -6.7 24 24 NNW 9 15 30.15 1021 10 16 0.00 0.00
2:53 am 02:53 Clear 55 12.8 20 -6.7 25 25 N 8 13 30.16 1022 10 16 0.00 0.00
3:53 am 03:53 Clear 56 13.3 21 -6.1 26 26 NNW 13 20 30.17 1022 10 16 0.00 0.00
4:53 am 04:53 Clear 55 12.8 21 -6.1 26 26 NNW 12 19 30.18 1022 10 16 0.00 0.00
5:53 am 05:53 Clear 52 11.1 20 -6.7 28 28 NNW 14 22 30.20 1023 10 16 0.00 0.00
6:53 am 06:53 Sunny 52 11.1 20 -6.7 28 28 NNW 15 24 30.21 1023 10 16 0.00 0.00
7:53 am 07:53 Sunny 55 12.8 21 -6.1 26 26 NNW 14 22 30.25 1024 10 16 0.00 0.00
8:53 am 08:53 Sunny 58 14.4 21 -6.1 24 24 NW 16 26 30.26 1025 10 16 0.00 0.00
9:53 am 09:53 Sunny 62 16.7 20 -6.7 20 20 NNW 15 24 30.27 1025 10 16 0.00 0.00
10:53 am 10:53 Sunny 64 17.8 20 -6.7 18 18 NW 9 15 30.30 1026 10 16 0.00 0.00
11:53 am 11:53 Sunny 65 18.3 20 -6.7 18 18 VRB 5 7 30.28 1026 10 16 0.00 0.00
12:53 pm 12:53 Sunny 68 20 20 -6.7 16 16 undefined N/A 30.27 1025 10 16 0.00 0.00
1:53 pm 13:53 Sunny 71 21.7 18 -7.8 13 13 VRB 5 7 30.24 1024 10 16 0.00 0.00
2:53 pm 14:53 Sunny 72 22.2 18 -7.8 13 13 E 8 13 30.22 1023 10 16 0.00 0.00
3:53 pm 15:53 Sunny 74 23.3 19 -7.2 12 12 E 12 19 30.21 1023 10 16 0.00 0.00
4:53 pm 16:53 Sunny 73 22.8 19 -7.2 13 13 VRB 6 9 30.21 1023 10 16 0.00 0.00
5:53 pm 17:53 Sunny 73 22.8 19 -7.2 13 13 E 6 9 30.21 1023 10 16 0.00 0.00
6:53 pm 18:53 Sunny 70 21.1 19 -7.2 14 14 ESE 5 7 30.22 1023 10 16 0.00 0.00
7:53 pm 19:53 Clear 68 20 19 -7.2 15 15 SE 3 6 30.23 1024 10 16 0.00 0.00
8:53 pm 20:53 Clear 67 19.4 22 -5.6 18 18 WSW 8 13 30.24 1024 10 16 0.00 0.00
9:53 pm 21:53 Clear 63 17.2 22 -5.6 21 21 WNW 3 6 30.27 1025 10 16 0.00 0.00
10:53 pm 22:53 Clear 60 15.6 22 -5.6 23 23 NNW 6 9 30.28 1025 10 16 0.00 0.00
11:53 pm 23:53 Clear 58 14.4 23 -5 26 26 WNW 7 11 30.29 1026 10 16 0.00 0.00

Powered by AerisWeather